Camp Pendleton, CA

12:10 PM PDT on July 24, 2016 (GMT -0700)
Camp Pendleton Marine Corps Air Station

Weather History for KNFG - November, 2012

Change the Weather History Date:

Tuesday, November 20, 2012

  Actual Average Record
Temperature  
Mean Temperature 56 °F -  
Max Temperature 71 °F 68 °F 91 °F (2002)
Min Temperature 41 °F 41 °F 34 °F (2000)
Degree Days  
Heating Degree Days 9    
Growing Degree Days 6 (Base 50)    
Moisture  
Dew Point 44 °F    
Average Humidity 76    
Maximum Humidity 90    
Minimum Humidity 51    
Precipitation  
Precipitation 0.01 in - - ()
Sea Level Pressure  
Sea Level Pressure 30.11 in    
Wind  
Wind Speed 1 mph (East)    
Max Wind Speed 10 mph    
Max Gust Speed -    
Visibility 7 miles    
Events      
Averages and records for this station are not official NWS values.
T = Trace of Precipitation, MM = Missing Value Source: NWS Daily Summary

Daily Weather History Graph

Daily Weather History Graph

Search for Another Location

Airport or City:

Trip Planner

Search our weather history database for the weather conditions in past years. The results will help you decide how hot, cold, wet, or windy it might be!

Date:

Astronomy

Nov. 20, 2012 Rise Set
Actual Time 6:25 AM PST 4:44 PM PST
Civil Twilight 5:59 AM PST 5:11 PM PST
Nautical Twilight 5:28 AM PST 5:41 PM PST
Astronomical Twilight 4:59 AM PST 6:10 PM PST
Moon 12:13 PM PST (11/20) No Moon Set
Length of Visible Light 11h 11m
Length of Day
10h 18m
First Quarter, 52% of the Moon is Illuminated
Nov 20
First Quarter
Nov 28
Full
Dec 6
Last Quarter
Dec 13
New
Dec 19
First Quarter

Hourly Weather History & Observations

Time (PST) Temp. Windchill Dew Point Humidity Pressure Visibility Wind Dir Wind Speed Gust Speed Precip Events Conditions
12:54 AM 46.0 °F - 42.1 °F 86% 30.16 in 7.0 mi Calm Calm - N/A   Clear
1:54 AM 46.9 °F - 42.1 °F 83% 30.15 in 10.0 mi Calm Calm - 0.01 in   Clear
2:54 AM 44.1 °F - 39.0 °F 82% 30.15 in 4.0 mi Calm Calm - N/A   Haze
3:08 AM 42.8 °F - 37.4 °F 81% 30.14 in 2.0 mi Calm Calm - N/A   Haze
3:12 AM 44.6 °F - 39.2 °F 81% 30.14 in 1.0 mi Calm Calm - N/A   Haze
3:18 AM 46.4 °F - 41.0 °F 81% 30.14 in 2.0 mi Calm Calm - N/A   Haze
3:25 AM 44.6 °F 43.1 °F 39.2 °F 81% 30.14 in 10.0 mi NNE 3.5 mph - N/A   Scattered Clouds
3:54 AM 43.0 °F - 39.0 °F 86% 30.14 in 6.0 mi Calm Calm - N/A   Scattered Clouds
4:02 AM 44.6 °F - 39.2 °F 81% 30.14 in 4.0 mi Calm Calm - N/A   Haze
4:15 AM 42.8 °F - 39.2 °F 87% 30.14 in 3.0 mi Calm Calm - N/A   Scattered Clouds
4:39 AM 42.8 °F - 37.4 °F 81% 30.14 in 5.0 mi Calm Calm - N/A   Haze
4:42 AM 42.8 °F - 37.4 °F 81% 30.14 in 1.0 mi Calm Calm - N/A   Haze
4:49 AM 42.8 °F - 37.4 °F 81% 30.14 in 0.2 mi Calm Calm - N/A   Haze
4:54 AM 44.1 °F - 39.0 °F 82% 30.14 in 0.2 mi Calm Calm - N/A   Haze
5:10 AM 42.8 °F - 39.2 °F 87% 30.14 in 1.5 mi Calm Calm - N/A   Overcast
5:14 AM 42.8 °F - 37.4 °F 81% 30.14 in 3.0 mi Calm Calm - N/A   Overcast
5:23 AM 44.6 °F - 39.2 °F 81% 30.14 in 2.0 mi Calm Calm - N/A   Haze
5:54 AM 42.1 °F - 37.9 °F 85% 30.14 in 2.0 mi Calm Calm - N/A   Mist
6:54 AM 41.0 °F - 36.0 °F 82% 30.15 in 5.0 mi Calm Calm - N/A   Haze
7:54 AM 46.9 °F - 44.1 °F 90% 30.16 in 8.0 mi Calm Calm - N/A   Partly Cloudy
8:54 AM 54.0 °F - 46.9 °F 77% 30.15 in 10.0 mi Calm Calm - N/A   Clear
9:54 AM 64.0 °F - 48.0 °F 56% 30.14 in 10.0 mi Calm Calm - N/A   Clear
10:54 AM 69.1 °F - 51.1 °F 53% 30.11 in 10.0 mi South 8.1 mph - N/A   Clear
11:54 AM 70.0 °F - 53.1 °F 55% 30.07 in 10.0 mi SSW 6.9 mph - N/A   Clear
12:54 PM 71.1 °F - 52.0 °F 51% 30.05 in 10.0 mi SW 8.1 mph - N/A   Clear
1:54 PM 69.1 °F - 52.0 °F 54% 30.04 in 10.0 mi SSW 10.4 mph - N/A   Partly Cloudy
2:54 PM 68.0 °F - 51.1 °F 55% 30.04 in 10.0 mi Variable 4.6 mph - N/A   Partly Cloudy
3:54 PM 66.0 °F - 52.0 °F 60% 30.03 in 10.0 mi SW 4.6 mph - N/A   Partly Cloudy
4:54 PM 63.0 °F - 50.0 °F 63% 30.03 in 10.0 mi SSW 4.6 mph - N/A   Partly Cloudy
5:54 PM 60.1 °F - 50.0 °F 69% 30.05 in 10.0 mi East 4.6 mph - N/A   Partly Cloudy
6:54 PM 54.0 °F - 48.0 °F 80% 30.07 in 10.0 mi Calm Calm - N/A   Partly Cloudy
7:54 PM 54.0 °F - 48.0 °F 80% 30.08 in 10.0 mi ENE 3.5 mph - N/A   Partly Cloudy
8:54 PM 52.0 °F - 46.0 °F 80% 30.09 in 10.0 mi NE 3.5 mph - N/A   Partly Cloudy
9:26 PM 51.8 °F - 46.4 °F 82% 30.09 in 10.0 mi NE 4.6 mph - N/A   Mostly Cloudy
9:54 PM 52.0 °F - 46.9 °F 83% 30.08 in 10.0 mi ENE 3.5 mph - N/A   Mostly Cloudy
10:54 PM 52.0 °F - 46.0 °F 80% 30.09 in 10.0 mi NNE 5.8 mph - N/A   Mostly Cloudy
11:54 PM 51.1 °F - 45.0 °F 80% 30.08 in 10.0 mi NE 3.5 mph - N/A   Mostly Cloudy